Temperature
15 16 16 16 16 16 16 16 17 16 17 17 17 17 17 17 16 16 16 16 16 15 15 15 15 15 14 14 14 14 14 14 14 14 14 14 14 14
15 15 15 16 16 16 16 16 16 16 16 16 16 16 16 16 16 16 16 16 16 15 15 15 15 15 15 14 14 14 14 14 14 14 14 14 14 14
15 15 15 15 15 15 15 15 15 15 15 15 15 15 16 16 16 16 16 16 15 15 15 15 15 14 14 14 14 14 14 14 14 14 14 14 14 14
15 15 15 15 15 15 15 15 15 15 15 15 15 15 15 15 15 15 15 15 15 15 14 14 14 14 14 14 14 14 14 14 14 14 14 14 14 13
14 14 14 14 14 14 14 14 14 14 14 14 14 14 14 14 14 14 14 14 14 14 13 13 13 13 13 13 13 13 13 13 13 13 13 13 13 13
14 14 14 14 14 14 14 14 14 14 14 14 14 14 14 14 13 13 13 13 13 13 13 12 12 12 12 12 12 12 12 12 12 12 12 12 12 12
14 14 14 14 14 14 13 13 13 13 13 13 13 13 13 13 13 12 12 12 12 12 12 11 11 11 11 11 11 11 11 11 11 11 11 11 11 11
14 13 13 13 13 13 13 13 12 12 12 12 12 12 12 11 11 11 11 11 10 10 10 10 10 10 10 10 10 10 10 10 9 9 9 9 10 10
13 13 13 12 12 12 12 12 11 11 11 11 11 10 10 10 10 10 9 9 9 9 9 9 9 9 9 9 9 8 8 8 8 8 8 8 8 9
12 12 12 11 11 11 11 11 10 10 10 10 9 9 9 8 8 8 8 8 8 8 8 8 8 8 8 8 7 7 7 7 7 7 7 7 7 7
11 10 10 10 10 9 9 9 9 9 8 8 8 7 7 7 7 7 7 7 7 7 6 6 6 6 7 7 6 6 6 6 6 6 6 6 6 6
10 9 9 9 9 8 8 8 8 7 7 7 6 6 6 6 6 6 6 6 5 5 5 5 4 4 4 5 5 5 5 5 5 5 5 5 5 5
9 8 8 8 8 7 7 7 6 6 6 6 5 5 5 5 5 5 4 4 4 4 3 3 3 3 3 3 4 4 4 4 4 4 4 4 4 4
8 7 7 7 7 6 6 6 5 5 5 5 5 4 4 4 4 3 3 3 3 3 2 2 2 2 2 2 2 3 3 3 3 3 3 3 3 3
7 6 6 6 6 6 5 5 5 4 4 4 3 3 3 3 3 3 3 3 3 2 2 1 1 1 1 1 1 1 2 2 2 2 2 2 2 3
6 5 5 5 5 4 4 4 4 3 3 3 2 2 2 2 2 2 2 2 2 2 2 1 1 1 1 1 1 1 1 1 1 1 1 2 2 2
5 5 4 4 4 3 3 3 3 2 2 2 2 2 2 1 1 1 1 1 1 1 1 1 1 1 0 0 1 1 0 0 0 1 1 1 2 2
4 4 4 3 3 3 3 2 2 2 1 1 1 1 1 1 1 0 0 0 0 0 -0 -0 -0 0 0 0 0 0 -0 -0 0 0 0 0 1 2
4 4 3 3 3 2 2 2 1 1 1 1 0 0 0 0 -0 -0 -0 -0 -0 -0 -1 -1 -1 -1 -1 -1 -1 -0 -1 -0 -0 -0 0 0 0 1
3 3 3 2 2 2 1 1 1 0 0 0 0 -0 -0 -0 -1 -1 -1 -1 -1 -1 -1 -1 -1 -1 -2 -2 -2 -1 -0 -0 -1 -1 -0 -0 0 1
3 2 2 2 1 1 1 1 0 0 -0 -0 -0 -1 -1 -1 -1 -1 -1 -1 -1 -2 -2 -1 -1 -1 -1 -1 -1 -1 -1 -0 -0 -1 -1 -1 -0 0
2 2 2 1 1 1 0 0 0 -0 -0 -0 -1 -1 -1 -1 -1 -1 -2 -2 -2 -2 -2 -2 -1 -1 -1 -2 -2 -1 -1 -1 -0 -0 -0 -1 -1 -1
2 2 1 1 1 1 0 0 -0 -0 -1 -1 -1 -1 -1 -1 -2 -2 -2 -2 -2 -2 -2 -2 -2 -2 -2 -2 -2 -2 -1 -1 -1 -1 -1 -0 -1 -1
Wind_Speed
4 3 2 1 2 2 2 3 4 2 2 2 2 3 4 2 2 1 1 2 2 3 4 5 5 5 6 7 8 9 9 10 10 11 11 11 11 11
3 3 2 1 1 1 2 2 2 3 2 1 1 3 4 4 5 4 4 6 6 4 3 2 2 2 3 5 6 7 8 9 10 10 11 11 11 12
3 4 3 2 2 2 2 2 2 2 3 1 1 3 4 5 6 7 7 7 8 9 8 7 6 6 5 5 5 6 6 7 8 9 9 10 11 11
4 4 3 2 2 1 2 2 1 1 2 2 1 3 4 4 4 6 7 7 8 11 12 11 11 10 9 9 8 8 7 7 7 7 8 9 10 11
4 4 3 4 3 2 2 2 1 1 1 2 1 2 3 3 3 4 6 6 7 9 10 10 10 10 10 10 10 10 9 8 8 8 8 9 9 10
4 4 4 4 4 3 3 2 3 3 3 3 2 2 3 3 3 3 3 4 4 6 8 8 9 10 10 10 10 11 10 10 10 10 10 10 9 10
7 7 7 9 9 7 5 4 4 4 4 3 3 2 3 3 3 3 3 2 2 4 4 4 5 7 9 9 9 11 12 11 11 12 12 12 12 11
9 8 9 10 13 14 14 12 9 6 4 3 3 3 3 2 2 2 2 2 2 4 3 3 3 4 6 7 8 10 11 11 12 13 13 14 14 14
8 8 7 8 9 9 13 15 15 15 10 5 5 4 3 3 2 3 3 2 2 3 3 2 2 4 6 7 8 10 12 13 13 15 16 16 16 15
9 9 9 8 8 9 11 12 12 11 11 9 7 6 6 4 3 2 2 2 1 2 4 3 3 5 7 7 7 10 13 14 15 16 17 17 17 17
10 10 10 10 11 12 11 11 10 9 14 17 16 15 15 14 10 5 4 4 3 3 4 3 4 5 5 4 6 11 15 15 16 17 18 17 16 16
9 10 13 13 13 12 10 9 9 7 7 9 11 12 13 14 14 9 5 4 3 3 4 4 4 5 5 3 6 11 12 13 16 17 17 16 17 14
9 8 9 15 15 15 12 10 9 7 7 8 8 8 8 9 10 10 7 4 3 3 4 4 3 4 4 6 7 8 10 12 13 13 13 15 17 14
9 7 9 15 15 15 12 12 12 9 7 7 7 7 7 7 7 8 8 7 4 4 6 4 3 4 5 7 7 7 9 12 11 9 11 14 15 15
9 13 13 14 13 12 14 13 10 7 7 7 6 6 5 5 6 6 8 9 8 6 6 6 5 5 5 6 8 9 10 9 8 9 11 11 11 12
11 13 15 14 11 10 10 9 7 6 6 5 4 4 5 6 6 6 6 7 6 6 8 9 8 6 6 8 9 10 10 8 9 11 12 12 12 12
9 7 7 6 7 6 6 6 6 5 5 5 5 5 6 7 6 6 5 6 5 7 8 8 10 10 8 8 9 9 10 10 11 11 12 12 12 12
9 7 6 5 5 5 5 4 4 5 4 4 5 5 6 7 7 7 6 6 7 7 8 8 9 8 7 6 6 9 10 11 12 12 11 12 13 12
8 6 5 4 4 3 3 3 3 3 3 4 5 5 6 6 7 7 8 8 8 8 8 8 8 7 10 12 8 8 11 12 12 12 11 11 13 13
5 5 4 3 3 3 2 2 2 3 3 4 5 5 6 6 7 8 8 9 9 9 9 9 8 8 9 10 10 11 15 12 11 12 13 12 12 13
4 3 3 2 2 1 1 1 2 3 4 4 5 6 6 6 7 7 8 9 8 8 9 10 10 13 10 8 9 10 11 14 14 12 12 12 12 11
3 2 2 1 1 1 1 1 2 3 4 4 5 6 6 6 7 8 8 8 8 8 10 10 11 10 8 9 11 13 13 14 15 16 14 12 9 9
2 2 1 1 0 0 1 2 3 3 4 5 5 6 6 6 6 7 8 8 8 9 10 10 10 9 9 10 11 12 14 14 12 12 11 14 17 18
Wind_Direction
161 163 165 171 172 177 166 160 154 178 251 311 327 345 347 347 333 308 265 275 264 260 261 263 270 277 280 281 282 282 280 279 279 279 278 277 276 273
153 152 151 146 138 143 154 153 154 166 199 259 325 349 6 32 41 56 56 57 55 60 56 36 8 341 323 310 303 298 294 290 287 284 281 279 276 273
156 159 163 148 138 136 129 130 139 153 180 222 4 6 26 37 40 51 54 57 58 60 62 57 50 41 33 19 8 353 337 322 310 301 295 290 285 281
168 158 162 150 140 142 139 138 151 175 176 184 42 27 34 33 41 47 46 55 61 59 61 58 54 49 44 38 30 19 4 352 340 327 315 305 296 290
157 155 156 151 148 134 125 124 120 115 123 143 104 42 37 30 38 43 43 36 50 48 56 53 47 45 42 40 33 25 16 9 358 345 333 322 313 305
111 113 113 123 125 116 99 89 93 88 87 98 86 49 36 23 41 35 29 23 28 33 36 41 42 40 36 32 29 24 20 17 11 4 353 340 327 316
88 84 86 91 92 91 91 86 92 92 89 84 72 54 36 27 23 8 12 1 26 20 5 19 24 25 21 22 25 24 21 16 10 3 355 346 335 324
94 83 77 75 80 79 77 74 77 85 91 88 76 65 37 17 7 9 7 8 357 8 352 348 10 8 5 10 14 19 19 14 4 357 350 343 336 327
90 86 82 75 74 79 74 69 64 63 69 90 85 66 43 14 9 18 17 2 335 343 338 322 344 343 346 349 358 11 12 6 358 351 346 340 334 327
80 83 86 76 75 82 83 75 67 60 62 69 76 64 53 38 33 25 355 335 312 359 4 327 334 328 328 324 343 5 3 355 348 342 336 332 328 324
76 74 81 79 75 82 86 82 73 64 66 69 69 64 58 53 47 43 28 16 353 351 9 343 329 324 313 307 332 349 345 338 334 331 328 327 326 323
78 71 72 78 74 76 82 86 80 64 61 58 54 49 47 44 42 42 32 17 355 335 0 345 332 336 317 306 321 326 325 324 323 321 321 323 326 324
91 81 76 80 77 74 75 78 84 83 71 66 57 46 39 34 29 26 25 17 357 335 343 339 323 326 305 305 309 309 315 319 319 317 319 320 320 317
99 94 89 84 80 77 77 78 77 74 69 62 54 41 31 21 11 7 8 7 350 311 320 332 323 317 311 308 308 310 314 315 315 316 321 319 314 309
95 96 89 83 79 76 72 70 68 67 66 60 50 34 16 1 359 357 357 354 349 346 350 343 326 312 300 300 305 307 314 314 313 319 320 317 314 312
93 89 81 73 70 68 65 61 61 63 65 57 39 19 7 6 6 0 351 348 341 336 335 335 329 317 305 300 298 302 309 309 312 316 316 312 308 306
103 89 79 75 70 66 63 58 55 51 47 38 27 16 7 3 358 353 348 345 340 331 330 331 330 319 295 289 298 303 310 312 313 316 316 312 309 306
98 94 87 82 78 71 64 54 45 39 31 23 17 9 0 354 348 347 345 342 335 329 326 327 331 332 328 313 273 299 312 314 314 313 310 309 308 308
93 96 94 89 83 73 62 50 34 22 16 13 6 358 351 347 343 342 342 338 333 328 325 325 329 333 330 328 316 297 307 311 312 312 312 309 305 306
93 101 100 94 84 72 57 42 22 9 5 358 353 349 346 342 340 338 336 333 328 324 323 325 328 328 319 310 305 305 303 304 311 313 313 311 306 298
94 95 99 98 86 71 48 18 359 350 347 344 343 341 339 336 333 330 327 324 322 322 322 321 316 313 306 298 302 310 312 308 303 304 310 313 316 315
112 111 108 104 95 66 4 344 340 339 339 339 336 334 332 330 327 326 324 323 320 316 313 312 315 319 319 315 316 317 318 320 319 313 304 300 312 316
141 139 134 124 115 305 318 325 329 331 334 332 329 328 328 326 323 320 319 318 317 318 320 320 324 323 319 316 317 318 321 326 329 329 328 326 318 309
Height
1559 1560 1562 1563 1564 1565 1566 1567 1568 1568 1568 1569 1569 1569 1569 1569 1570 1570 1570 1571 1571 1571 1571 1571 1571 1571 1570 1570 1570 1570 1569 1569 1569 1568 1568 1567 1567 1566
1556 1558 1559 1561 1562 1563 1564 1564 1565 1566 1566 1566 1567 1567 1567 1567 1567 1567 1567 1568 1568 1568 1568 1568 1567 1567 1567 1566 1566 1565 1565 1564 1564 1563 1563 1562 1562 1561
1554 1556 1557 1559 1560 1561 1561 1562 1563 1564 1564 1564 1564 1565 1565 1565 1565 1565 1564 1564 1564 1564 1564 1564 1563 1563 1562 1562 1561 1560 1560 1559 1558 1558 1557 1556 1556 1555
1552 1553 1555 1556 1557 1558 1559 1559 1560 1560 1561 1561 1561 1562 1562 1562 1562 1561 1561 1561 1561 1560 1560 1559 1559 1558 1557 1556 1556 1555 1554 1553 1552 1552 1551 1550 1549 1549
1550 1551 1552 1554 1554 1555 1556 1556 1557 1558 1558 1558 1558 1558 1558 1558 1558 1558 1557 1557 1557 1556 1555 1555 1554 1553 1552 1551 1550 1549 1548 1547 1546 1545 1544 1543 1542 1541
1547 1549 1550 1551 1552 1552 1553 1553 1554 1554 1555 1555 1555 1555 1555 1554 1554 1554 1553 1553 1552 1552 1551 1550 1549 1548 1547 1546 1544 1543 1542 1540 1539 1538 1537 1535 1534 1533
1545 1546 1547 1548 1549 1549 1550 1551 1551 1551 1552 1551 1552 1551 1551 1551 1550 1550 1549 1548 1548 1547 1546 1545 1545 1543 1542 1540 1539 1537 1536 1534 1533 1531 1530 1528 1527 1526
1543 1545 1546 1546 1547 1547 1548 1548 1549 1549 1548 1549 1548 1548 1548 1547 1547 1546 1545 1544 1543 1543 1542 1541 1540 1538 1537 1535 1534 1532 1530 1528 1526 1524 1522 1521 1519 1518
1542 1543 1544 1545 1545 1546 1546 1546 1546 1546 1546 1546 1546 1545 1545 1544 1544 1543 1542 1541 1539 1538 1537 1536 1535 1533 1532 1530 1528 1526 1524 1522 1520 1518 1515 1513 1511 1510
1541 1542 1542 1543 1544 1545 1545 1545 1544 1544 1544 1544 1544 1543 1542 1542 1541 1540 1539 1538 1537 1535 1533 1531 1529 1528 1526 1525 1523 1520 1518 1516 1513 1511 1508 1506 1503 1501
1540 1541 1542 1542 1543 1544 1544 1544 1544 1544 1544 1543 1542 1542 1541 1540 1539 1538 1537 1535 1533 1532 1529 1527 1524 1522 1520 1519 1517 1515 1512 1509 1507 1504 1501 1498 1495 1493
1539 1540 1541 1542 1543 1543 1544 1544 1543 1543 1543 1543 1542 1541 1540 1539 1537 1536 1534 1532 1530 1528 1526 1524 1521 1518 1515 1513 1512 1509 1506 1503 1500 1497 1494 1491 1488 1485
1539 1540 1541 1542 1542 1543 1543 1543 1543 1543 1542 1542 1541 1540 1539 1537 1535 1533 1532 1530 1528 1525 1523 1520 1518 1515 1513 1508 1505 1503 1500 1496 1493 1490 1487 1484 1482 1479
1540 1541 1542 1543 1543 1544 1543 1543 1543 1543 1542 1541 1540 1539 1537 1535 1534 1532 1530 1528 1525 1523 1520 1518 1515 1512 1509 1504 1501 1497 1495 1492 1488 1484 1481 1478 1475 1473
1541 1542 1543 1544 1544 1544 1544 1544 1543 1543 1542 1541 1539 1538 1536 1534 1532 1530 1528 1526 1523 1520 1518 1515 1512 1509 1506 1502 1498 1494 1490 1486 1483 1480 1476 1472 1469 1466
1543 1544 1545 1545 1545 1545 1545 1544 1543 1543 1542 1541 1539 1538 1536 1533 1530 1527 1524 1521 1519 1517 1515 1511 1508 1505 1501 1498 1495 1490 1487 1483 1479 1475 1471 1467 1464 1461
1544 1546 1546 1547 1547 1546 1546 1545 1544 1543 1542 1541 1539 1537 1534 1531 1528 1525 1522 1518 1515 1512 1509 1507 1504 1501 1498 1495 1491 1487 1483 1479 1475 1471 1466 1462 1459 1456
1546 1547 1547 1548 1547 1547 1547 1546 1545 1543 1542 1540 1538 1535 1532 1529 1526 1523 1520 1516 1513 1510 1506 1503 1499 1496 1493 1490 1488 1483 1479 1475 1471 1467 1463 1458 1453 1451
1548 1548 1549 1549 1548 1548 1547 1546 1545 1544 1542 1539 1537 1534 1531 1527 1524 1521 1517 1514 1511 1508 1505 1501 1497 1493 1489 1486 1482 1481 1476 1471 1467 1462 1459 1454 1449 1445
1549 1549 1549 1549 1549 1549 1548 1546 1545 1543 1541 1538 1536 1532 1529 1526 1522 1519 1515 1512 1508 1505 1502 1500 1496 1492 1489 1484 1479 1476 1474 1469 1463 1458 1454 1450 1445 1441
1550 1550 1550 1550 1549 1549 1548 1546 1545 1542 1540 1537 1534 1531 1527 1524 1521 1517 1514 1510 1507 1503 1500 1497 1494 1491 1486 1482 1477 1472 1469 1466 1461 1456 1450 1445 1440 1435
1551 1551 1551 1550 1550 1549 1547 1546 1544 1541 1539 1536 1533 1529 1526 1522 1519 1515 1512 1508 1505 1501 1498 1494 1491 1487 1484 1480 1474 1469 1464 1461 1457 1453 1449 1444 1439 1433
1552 1551 1551 1550 1549 1548 1547 1545 1543 1540 1537 1534 1531 1528 1524 1521 1517 1514 1510 1506 1503 1499 1495 1491 1488 1484 1481 1477 1472 1467 1462 1457 1452 1448 1444 1441 1437 1432